When you browse on this site, cookies collect data to enhance your experience and personalize the content and advertising you see.
Visit our Privacy Policy to learn more. By continuing to use the site, you agree to this use of cookies and data.
  • In Austria
  • List of Countries
  • For 7 days
  • Water Temperature
  • Weather Map
  • News
  • Weather Widgets
  • user-avatar
    Login

    Hourly Weather Ahmerovo

    Today, 2 June, Tuesday

    Time Temperature Precipitation Wind Pressure Humidity
    00:00 +15°C° 0 mm 0 mps 746 mmHg 75%
    01:00 +15°C° 0 mm 0 mps 746 mmHg 77%
    02:00 +14°C° 0 mm 0 mps 746 mmHg 79%
    03:00 +14°C° 0 mm 0 mps 746 mmHg 80%
    04:00 +14°C° 0 mm 0 mps 746 mmHg 79%
    05:00 +15°C° 0 mm 0 mps 746 mmHg 75%
    06:00 +19°C° 0 mm 1 mps 746 mmHg 71%
    07:00 +20°C° 0 mm 1 mps 746 mmHg 67%
    08:00 +21°C° 0 mm 1 mps 747 mmHg 62%
    09:00 +22°C° 0 mm 1 mps 747 mmHg 57%
    10:00 +23°C° 0 mm 1 mps 747 mmHg 51%
    11:00 +24°C° 0 mm 1 mps 747 mmHg 47%
    12:00 +25°C° 0 mm 1 mps 747 mmHg 43%
    13:00 +24°C° 0 mm 0 mps 747 mmHg 40%
    14:00 +25°C° 0 mm 1 mps 747 mmHg 44%
    15:00 +25°C° 0 mm 2 mps 747 mmHg 47%
    16:00 +24°C° 0 mm 3 mps 747 mmHg 51%
    17:00 +23°C° 0 mm 4 mps 747 mmHg 58%
    18:00 +22°C° 0 mm 4 mps 746 mmHg 64%
    19:00 +21°C° 0 mm 5 mps 746 mmHg 70%
    20:00 +19°C° 0 mm 4 mps 746 mmHg 73%
    21:00 +18°C° 0 mm 4 mps 746 mmHg 76%
    22:00 +17°C° 0 mm 4 mps 746 mmHg 79%
    23:00 +15°C° 0 mm 4 mps 746 mmHg 78%

    Tomorrow, 3 June, Wednesday

    Time Temperature Precipitation Wind Pressure Humidity
    00:00 +15°C° 0 mm 4 mps 746 mmHg 77%
    01:00 +15°C° 0 mm 4 mps 746 mmHg 77%
    02:00 +14°C° 0 mm 4 mps 746 mmHg 78%
    03:00 +14°C° 0 mm 4 mps 746 mmHg 80%
    04:00 +14°C° 0 mm 4 mps 746 mmHg 81%
    05:00 +15°C° 0 mm 4 mps 746 mmHg 79%
    06:00 +17°C° 0 mm 4 mps 746 mmHg 76%
    07:00 +18°C° 0 mm 4 mps 746 mmHg 74%
    08:00 +20°C° 0 mm 4 mps 746 mmHg 69%
    09:00 +22°C° 0 mm 4 mps 746 mmHg 63%
    10:00 +25°C° 0 mm 4 mps 746 mmHg 58%
    11:00 +26°C° 0 mm 4 mps 746 mmHg 53%
    12:00 +27°C° 0 mm 4 mps 746 mmHg 49%
    13:00 +28°C° 0 mm 4 mps 746 mmHg 44%
    14:00 +28°C° 0 mm 4 mps 746 mmHg 44%
    15:00 +28°C° 0 mm 4 mps 746 mmHg 44%
    16:00 +28°C° 0 mm 4 mps 746 mmHg 43%
    17:00 +27°C° 0 mm 5 mps 745 mmHg 50%
    18:00 +26°C° 0 mm 5 mps 745 mmHg 57%
    19:00 +23°C° 0 mm 5 mps 745 mmHg 64%
    20:00 +22°C° 0 mm 5 mps 745 mmHg 67%
    21:00 +20°C° 0 mm 6 mps 745 mmHg 71%
    22:00 +19°C° 0 mm 6 mps 745 mmHg 74%
    23:00 +17°C° 0 mm 6 mps 745 mmHg 75%

    Day after tomorrow, 4 June, Thursday

    Time Temperature Precipitation Wind Pressure Humidity
    00:00 +17°C° 0 mm 5 mps 745 mmHg 75%
    01:00 +17°C° 0 mm 5 mps 745 mmHg 75%
    02:00 +17°C° 0 mm 6 mps 744 mmHg 74%
    03:00 +17°C° 0 mm 6 mps 744 mmHg 73%
    04:00 +16°C° 0 mm 7 mps 744 mmHg 71%
    05:00 +17°C° 0 mm 7 mps 744 mmHg 71%
    06:00 +17°C° 0 mm 7 mps 745 mmHg 71%
    07:00 +17°C° 0 mm 7 mps 745 mmHg 70%
    08:00 +18°C° 0 mm 7 mps 745 mmHg 68%
    09:00 +20°C° 0 mm 8 mps 745 mmHg 66%
    10:00 +21°C° 0 mm 8 mps 745 mmHg 64%
    11:00 +21°C° 0 mm 8 mps 745 mmHg 64%
    12:00 +21°C° 0 mm 7 mps 745 mmHg 64%
    13:00 +22°C° 0 mm 7 mps 745 mmHg 63%
    14:00 +22°C° 0 mm 6 mps 745 mmHg 64%
    15:00 +22°C° 0 mm 6 mps 745 mmHg 65%
    16:00 +22°C° 0 mm 5 mps 746 mmHg 66%
    17:00 +21°C° 0 mm 6 mps 746 mmHg 67%
    18:00 +20°C° 0 mm 6 mps 746 mmHg 67%
    19:00 +20°C° 0 mm 7 mps 746 mmHg 67%
    20:00 +20°C° 0 mm 7 mps 746 mmHg 63%
    21:00 +18°C° 0 mm 7 mps 746 mmHg 60%
    22:00 +18°C° 0 mm 7 mps 746 mmHg 56%
    23:00 +18°C° 0 mm 7 mps 746 mmHg 54%

    5 June, Friday

    Time Temperature Precipitation Wind Pressure Humidity
    00:00 +18°C° 0 mm 7 mps 746 mmHg 52%
    01:00 +17°C° 0 mm 7 mps 746 mmHg 50%
    02:00 +17°C° 0 mm 7 mps 746 mmHg 51%
    03:00 +17°C° 0 mm 7 mps 747 mmHg 52%
    04:00 +16°C° 0 mm 7 mps 747 mmHg 54%
    05:00 +16°C° 0 mm 8 mps 747 mmHg 58%
    06:00 +15°C° 0 mm 8 mps 747 mmHg 62%
    07:00 +15°C° 0 mm 8 mps 747 mmHg 66%
    08:00 +16°C° 0 mm 9 mps 747 mmHg 65%
    09:00 +16°C° 0 mm 9 mps 748 mmHg 63%
    10:00 +17°C° 0 mm 9 mps 748 mmHg 62%
    11:00 +17°C° 0 mm 9 mps 748 mmHg 61%
    12:00 +18°C° 0 mm 8 mps 748 mmHg 60%
    13:00 +18°C° 0 mm 8 mps 748 mmHg 60%
    14:00 +18°C° 0.1 mm 7 mps 748 mmHg 61%
    15:00 +18°C° 0.1 mm 7 mps 748 mmHg 62%
    16:00 +19°C° 0.1 mm 6 mps 748 mmHg 64%
    17:00 +19°C° 0.1 mm 6 mps 748 mmHg 66%
    18:00 +17°C° 0.1 mm 6 mps 748 mmHg 68%
    19:00 +16°C° 0.1 mm 6 mps 748 mmHg 70%
    20:00 +16°C° 0 mm 6 mps 748 mmHg 70%
    21:00 +15°C° 0 mm 7 mps 748 mmHg 69%
    22:00 +14°C° 0 mm 7 mps 748 mmHg 69%
    23:00 +14°C° 0 mm 7 mps 748 mmHg 68%

    6 June, Saturday

    Time Temperature Precipitation Wind Pressure Humidity
    00:00 +14°C° 0 mm 6 mps 748 mmHg 68%
    01:00 +13°C° 0 mm 6 mps 748 mmHg 68%
    02:00 +13°C° 0.1 mm 5 mps 748 mmHg 66%
    03:00 +13°C° 0.1 mm 5 mps 748 mmHg 65%
    04:00 +13°C° 0.1 mm 4 mps 748 mmHg 64%
    05:00 +13°C° 0 mm 5 mps 748 mmHg 63%
    06:00 +13°C° 0 mm 5 mps 748 mmHg 63%
    07:00 +13°C° 0 mm 5 mps 748 mmHg 63%
    08:00 +14°C° 0 mm 5 mps 749 mmHg 63%
    09:00 +14°C° 0 mm 5 mps 749 mmHg 64%
    10:00 +14°C° 0 mm 5 mps 749 mmHg 64%
    11:00 +14°C° 0.1 mm 5 mps 749 mmHg 66%
    12:00 +14°C° 0.1 mm 6 mps 750 mmHg 68%
    13:00 +13°C° 0.1 mm 6 mps 750 mmHg 70%
    14:00 +13°C° 0 mm 6 mps 750 mmHg 72%
    15:00 +13°C° 0 mm 6 mps 750 mmHg 74%
    16:00 +13°C° 0 mm 6 mps 750 mmHg 76%
    17:00 +14°C° 0 mm 5 mps 750 mmHg 74%
    18:00 +14°C° 0 mm 5 mps 750 mmHg 72%
    19:00 +14°C° 0 mm 4 mps 750 mmHg 70%
    20:00 +14°C° 0 mm 4 mps 750 mmHg 67%
    21:00 +14°C° 0 mm 4 mps 750 mmHg 65%
    22:00 +14°C° 0 mm 4 mps 750 mmHg 62%
    23:00 +14°C° 0 mm 4 mps 750 mmHg 64%

    7 June, Sunday

    Time Temperature Precipitation Wind Pressure Humidity
    00:00 +13°C° 0 mm 4 mps 750 mmHg 66%
    01:00 +13°C° 0 mm 4 mps 750 mmHg 68%
    02:00 +12°C° 0 mm 4 mps 751 mmHg 71%
    03:00 +12°C° 0 mm 4 mps 751 mmHg 73%
    04:00 +11°C° 0 mm 4 mps 751 mmHg 76%
    05:00 +12°C° 0 mm 4 mps 751 mmHg 72%
    06:00 +13°C° 0 mm 4 mps 751 mmHg 67%
    07:00 +14°C° 0 mm 4 mps 751 mmHg 63%
    08:00 +17°C° 0 mm 4 mps 751 mmHg 58%
    09:00 +19°C° 0 mm 5 mps 752 mmHg 52%
    10:00 +22°C° 0 mm 5 mps 752 mmHg 46%
    11:00 +22°C° 0 mm 5 mps 752 mmHg 43%
    12:00 +23°C° 0 mm 5 mps 752 mmHg 41%
    13:00 +25°C° 0 mm 5 mps 752 mmHg 38%
    14:00 +25°C° 0 mm 5 mps 752 mmHg 40%
    15:00 +25°C° 0 mm 4 mps 752 mmHg 42%
    16:00 +25°C° 0 mm 4 mps 752 mmHg 44%
    17:00 +22°C° 0 mm 4 mps 752 mmHg 47%
    18:00 +21°C° 0 mm 3 mps 752 mmHg 51%
    19:00 +19°C° 0 mm 3 mps 752 mmHg 54%
    20:00 +18°C° 0 mm 3 mps 752 mmHg 59%
    21:00 +17°C° 0 mm 2 mps 752 mmHg 64%
    22:00 +16°C° 0 mm 2 mps 752 mmHg 68%
    23:00 +16°C° 0 mm 3 mps 752 mmHg 65%
    Show more